Starlink 33816

operational
NORAD ID: 63677 Int'l Des: 2025-085 Owner: SPXS Country: US Constellation: starlink
LEOCIRCULAR

关于 Starlink 33816

正在加载描述...

实时位置

正在加载3D地球...

即将过境

高度历史

Altitude vs Time

uPlot chart will show altitude changes over time

两行轨道根数

1 63677U 25085P 26035.50874431 .00023741 00000-0 86870-3 0 9996
2 63677 42.9968 218.4523 0000758 260.6118 99.4648 15.27609792 43890
Epoch: Feb 4, 2026 • Age: 26 hours

当前状态

高度 494.2 km
速度 7.62 km/s
星下点 -39.53°S, 156.01°E
发射日期 Apr 28, 2025
运行时间 0.7 years
类型 internet

技术详情

分类 Payload
质量 575.00 kg
干质量 530.00 kg
总质量 575.00 kg
长度 0.30 m
直径 4.10 m
跨度 29.00 m
形状 Box + pan
制造商 SPXS
平台类型 Starlink V2MO
阶段状态 In Orbit
所有者/国家 SPXS/US

大型星座

Loading constellations...